Location: Unspecified
(0.0000°N, 0.0000°E)
Time: 05:58:59
(UTC+00:00)

Transit 4A - Pass Details

Date: 05 October 2020
Orbit: 862 x 982 km, 66.8° (Epoch: 28 October)

Event Time Altitude Azimuth Distance (km) Brightness Sun altitude
Rises 07:21:59 0° 328° (NNW) 3,640 10.7 23.3°
Reaches altitude 10° 07:24:40 10° 322° (NW) 2,683 10.0 24.0°
Maximum altitude 07:30:36 45° 251° (WSW) 1,250 8.5 25.5°
Drops below altitude 10° 07:36:24 10° 179° (S) 2,614 10.4 26.9°
Sets 07:38:59 0° 173° (S) 3,539 11.1 27.6°
